Port Aransas, TX

10:29 PM CDT on May 21, 2018 (GMT -0500)
Port Aransas

Weather History for KRAS - October, 2013

Change the Weather History Date:

Thursday, October 17, 2013

  Actual Average (WUND) Record (WUND)
Temperature  
Mean Temperature 70 °F -  
Max Temperature 76 °F - - (-1)
Min Temperature 64 °F - - (-1)
Cooling Degree Days 5    
Growing Degree Days 20 (Base 50)    
Moisture  
Dew Point 59 °F    
Average Humidity 71    
Maximum Humidity 85    
Minimum Humidity 55    
Precipitation  
Precipitation 0.00 in - - ()
Sea Level Pressure  
Sea Level Pressure 30.01 in    
Wind  
Wind Speed 11 mph (NNE)    
Max Wind Speed 16 mph    
Max Gust Speed 20 mph    
Visibility 10 miles    
Events      
Averages and records for this station are not official NWS values.
T = Trace of Precipitation, MM = Missing Value Source: NWS Daily Summary

Daily Weather History Graph

Daily Weather History Graph

Search for Another Location

Airport or City:

Astronomy

Oct. 17, 2013 Rise Set
Actual Time 7:29 AM CDT 6:56 PM CDT
Civil Twilight 7:06 AM CDT 7:20 PM CDT
Nautical Twilight 6:38 AM CDT 7:47 PM CDT
Astronomical Twilight 6:11 AM CDT 8:15 PM CDT
Moon 6:09 PM CDT (10/17) 6:08 AM CDT (10/17)
Length of Visible Light 12h 14m
Length of Day
11h 27m
Waxing Gibbous, 98% of the Moon is Illuminated
Oct 17
Waxing Gibbous
Oct 18
Full
Oct 26
Last Quarter
Nov 3
New
Nov 9
First Quarter

Hourly Weather History & Observations

Time (CDT) Temp. Dew Point Humidity Pressure Visibility Wind Dir Wind Speed Gust Speed Precip Events Conditions
12:15 AM 65.7 °F 61.2 °F 85% 30.03 in 10.0 mi North 10.4 mph - N/A   Overcast
12:35 AM 65.3 °F 60.8 °F 85% 30.03 in 10.0 mi North 10.4 mph - N/A   Overcast
12:55 AM 65.3 °F 60.4 °F 84% 30.02 in 10.0 mi North 11.5 mph - N/A   Overcast
1:15 AM 65.3 °F 60.8 °F 85% 30.02 in 10.0 mi North 8.1 mph - N/A   Overcast
1:35 AM 65.3 °F 60.6 °F 85% 30.01 in 10.0 mi North 13.8 mph - N/A   Overcast
1:55 AM 65.3 °F 60.4 °F 84% 30.02 in 10.0 mi North 12.7 mph - N/A   Overcast
2:15 AM 65.1 °F 60.3 °F 84% 30.01 in 10.0 mi North 13.8 mph - N/A   Overcast
2:35 AM 65.3 °F 60.3 °F 84% 30.01 in 10.0 mi North 13.8 mph 17.3 mph N/A   Overcast
2:55 AM 65.3 °F 60.4 °F 84% 30.01 in 10.0 mi North 15.0 mph 18.4 mph N/A   Overcast
3:15 AM 65.3 °F 60.1 °F 83% 30.00 in 10.0 mi North 16.1 mph - N/A   Overcast
3:35 AM 65.3 °F 60.6 °F 85% 30.00 in 10.0 mi North 12.7 mph - N/A   Overcast
3:55 AM 65.3 °F 60.4 °F 84% 29.99 in 10.0 mi North 12.7 mph - N/A   Overcast
4:15 AM 64.9 °F 60.3 °F 85% 29.99 in 10.0 mi North 10.4 mph - N/A   Overcast
4:35 AM 65.3 °F 60.4 °F 84% 29.98 in 10.0 mi North 13.8 mph - N/A   Overcast
4:55 AM 65.3 °F 60.6 °F 85% 29.99 in 10.0 mi North 11.5 mph - N/A   Overcast
5:15 AM 65.3 °F 60.3 °F 84% 30.00 in 10.0 mi North 15.0 mph - N/A   Overcast
5:35 AM 65.3 °F 60.1 °F 83% 30.01 in 10.0 mi North 11.5 mph - N/A   Overcast
5:55 AM 64.9 °F 60.1 °F 84% 30.00 in 10.0 mi North 13.8 mph - N/A   Overcast
6:15 AM 64.9 °F 59.9 °F 84% 30.00 in 10.0 mi North 13.8 mph - N/A   Overcast
6:35 AM 64.6 °F 59.0 °F 82% 30.01 in 10.0 mi North 15.0 mph 19.6 mph N/A   Overcast
6:55 AM 64.6 °F 58.3 °F 80% 30.01 in 10.0 mi North 13.8 mph - N/A   Overcast
7:15 AM 64.8 °F 57.0 °F 76% 30.02 in 10.0 mi North 16.1 mph - N/A   Overcast
7:35 AM 64.6 °F 56.3 °F 74% 30.03 in 10.0 mi North 15.0 mph - N/A   Overcast
7:55 AM 64.8 °F 56.3 °F 74% 30.04 in 10.0 mi NNE 13.8 mph 19.6 mph N/A   Overcast
8:15 AM 64.8 °F 56.3 °F 74% 30.05 in 10.0 mi NNE 12.7 mph - N/A   Overcast
8:35 AM 64.4 °F 56.8 °F 76% 30.05 in 10.0 mi North 15.0 mph 18.4 mph N/A   Overcast
8:55 AM 64.8 °F 56.8 °F 75% 30.06 in 10.0 mi NNE 11.5 mph - N/A   Overcast
9:15 AM 65.3 °F 55.4 °F 70% 30.06 in 10.0 mi NE 13.8 mph - N/A   Overcast
9:35 AM 65.7 °F 55.8 °F 70% 30.07 in 10.0 mi NNE 15.0 mph 19.6 mph N/A   Overcast
9:55 AM 65.7 °F 55.8 °F 70% 30.08 in 10.0 mi NNE 15.0 mph - N/A   Overcast
10:15 AM 66.0 °F 56.1 °F 70% 30.08 in 10.0 mi NE 13.8 mph 17.3 mph N/A   Overcast
10:35 AM 66.4 °F 55.9 °F 69% 30.08 in 10.0 mi NNE 13.8 mph - N/A   Overcast
10:55 AM 67.1 °F 55.8 °F 67% 30.08 in 10.0 mi NNE 13.8 mph - N/A   Overcast
11:15 AM 67.1 °F 55.8 °F 67% 30.08 in 10.0 mi NNE 10.4 mph - N/A   Overcast
11:35 AM 68.0 °F 56.3 °F 66% 30.08 in 10.0 mi NNE 12.7 mph - N/A   Overcast
11:55 AM 68.0 °F 56.1 °F 66% 30.07 in 10.0 mi NNE 13.8 mph - N/A   Overcast
12:15 PM 68.5 °F 56.8 °F 66% 30.06 in 10.0 mi NNE 11.5 mph - N/A   Overcast
12:35 PM 68.5 °F 57.0 °F 67% 30.06 in 10.0 mi NNE 9.2 mph - N/A   Overcast
12:55 PM 69.4 °F 57.4 °F 65% 30.05 in 10.0 mi North 6.9 mph - N/A   Overcast
1:15 PM 70.0 °F 57.2 °F 64% 30.04 in 10.0 mi NNE 10.4 mph - N/A   Overcast
1:35 PM 70.5 °F 57.4 °F 63% 30.02 in 10.0 mi NNE 10.4 mph - N/A   Overcast
1:55 PM 70.9 °F 57.0 °F 61% 30.01 in 10.0 mi NE 9.2 mph - N/A   Overcast
2:15 PM 71.6 °F 57.2 °F 60% 30.00 in 10.0 mi NNE 10.4 mph - N/A   Overcast
2:35 PM 72.0 °F 57.2 °F 60% 30.00 in 10.0 mi NNE 9.2 mph - N/A   Overcast
2:55 PM 73.0 °F 57.7 °F 59% 29.98 in 10.0 mi NNE 10.4 mph - N/A   Overcast
3:15 PM 73.8 °F 57.6 °F 57% 29.98 in 10.0 mi NNE 9.2 mph - N/A   Overcast
3:35 PM 75.4 °F 58.1 °F 55% 29.98 in 10.0 mi NNE 9.2 mph - N/A   Mostly Cloudy
3:55 PM 75.9 °F 58.6 °F 55% 29.97 in 10.0 mi ENE 10.4 mph - N/A   Scattered Clouds
4:15 PM 76.5 °F 59.4 °F 55% 29.97 in 10.0 mi ENE 9.2 mph - N/A   Clear
4:35 PM 75.6 °F 59.0 °F 56% 29.96 in 10.0 mi ENE 10.4 mph - N/A   Clear
4:55 PM 75.2 °F 59.7 °F 58% 29.96 in 10.0 mi ENE 9.2 mph - N/A   Clear
5:15 PM 75.9 °F 60.1 °F 58% 29.96 in 10.0 mi East 9.2 mph - N/A   Clear
5:35 PM 75.2 °F 59.9 °F 59% 29.95 in 10.0 mi ENE 10.4 mph - N/A   Clear
5:55 PM 75.0 °F 59.9 °F 59% 29.95 in 10.0 mi ENE 9.2 mph - N/A   Clear
6:15 PM 74.7 °F 60.6 °F 61% 29.95 in 10.0 mi ENE 8.1 mph - N/A   Clear
6:35 PM 74.1 °F 61.0 °F 63% 29.95 in 10.0 mi East 9.2 mph - N/A   Clear
6:55 PM 73.6 °F 60.8 °F 64% 29.95 in 10.0 mi ENE 8.1 mph - N/A   Clear
7:15 PM 73.4 °F 60.8 °F 65% 29.96 in 10.0 mi ENE 6.9 mph - N/A   Clear
7:35 PM 73.4 °F 61.0 °F 65% 29.96 in 10.0 mi ENE 9.2 mph - N/A   Scattered Clouds
7:55 PM 73.4 °F 61.0 °F 65% 29.96 in 10.0 mi ENE 8.1 mph - N/A   Mostly Cloudy
8:15 PM 73.6 °F 61.2 °F 65% 29.97 in 10.0 mi ENE 8.1 mph - N/A   Overcast
8:35 PM 74.1 °F 61.3 °F 64% 29.97 in 10.0 mi ENE 9.2 mph - N/A   Overcast
8:55 PM 74.3 °F 61.3 °F 64% 29.98 in 10.0 mi ENE 5.8 mph - N/A   Overcast
9:15 PM 73.6 °F 61.3 °F 65% 29.98 in 10.0 mi ENE 5.8 mph - N/A   Scattered Clouds
9:35 PM 73.6 °F 61.5 °F 66% 29.98 in 10.0 mi ENE 6.9 mph - N/A   Clear
9:55 PM 73.6 °F 61.9 °F 67% 29.98 in 10.0 mi ENE 5.8 mph - N/A   Clear
10:15 PM 73.6 °F 62.2 °F 68% 29.98 in 10.0 mi ENE 6.9 mph - N/A   Clear
10:35 PM 72.1 °F 60.8 °F 67% 29.98 in 10.0 mi NNE 4.6 mph - N/A   Clear
10:55 PM 72.0 °F 60.1 °F 66% 29.98 in 10.0 mi NE 5.8 mph - N/A   Clear
11:15 PM 72.0 °F 59.9 °F 66% 29.98 in 10.0 mi NNE 6.9 mph - N/A   Scattered Clouds
11:35 PM 71.8 °F 60.4 °F 67% 29.97 in 10.0 mi Calm Calm - N/A   Mostly Cloudy
11:55 PM 71.8 °F 61.0 °F 69% 29.98 in 10.0 mi Calm Calm - N/A   Mostly Cloudy